When you browse on this site, cookies collect data to enhance your experience and personalize the content and advertising you see.
Visit our Privacy Policy to learn more. By continuing to use the site, you agree to this use of cookies and data.
  • în România
  • Lista ţărilor
  • Pe 7 zile
  • Temperatura apei
  • Hartă satelitară
  • Meteo pe hartă
  • Widget-uri
  • user-avatar
    Intrare

    Meteo pe oră la Arontorp

    Astăzi, 19 Februarie, Marţi

    Timp Temperatura Precipitaţii Vânt Presiune Umiditate
    00:00 +2°C° 0 mm 3 m/s 755 mmHg 92%
    01:00 +2°C° 0 mm 3 m/s 754 mmHg 92%
    02:00 +1°C° 0 mm 4 m/s 754 mmHg 92%
    03:00 +1°C° 0 mm 4 m/s 753 mmHg 92%
    04:00 +1°C° 0 mm 4 m/s 752 mmHg 91%
    05:00 +1°C° 0 mm 4 m/s 752 mmHg 91%
    06:00 +3°C° 0 mm 4 m/s 751 mmHg 92%
    07:00 +3°C° 0 mm 4 m/s 751 mmHg 92%
    08:00 +3°C° 0 mm 4 m/s 750 mmHg 88%
    09:00 +3°C° 0 mm 5 m/s 750 mmHg 84%
    10:00 +5°C° 0 mm 5 m/s 750 mmHg 80%
    11:00 +5°C° 0 mm 5 m/s 749 mmHg 78%
    12:00 +4°C° 0 mm 6 m/s 749 mmHg 76%
    13:00 +5°C° 0 mm 7 m/s 749 mmHg 74%
    14:00 +5°C° 0 mm 7 m/s 749 mmHg 73%
    15:00 +5°C° 0 mm 7 m/s 749 mmHg 73%
    16:00 +4°C° 0 mm 7 m/s 748 mmHg 72%
    17:00 +4°C° 0 mm 7 m/s 748 mmHg 73%
    18:00 +4°C° 0 mm 7 m/s 748 mmHg 74%
    19:00 +4°C° 0 mm 6 m/s 748 mmHg 75%
    20:00 +4°C° 0 mm 6 m/s 748 mmHg 74%
    21:00 +4°C° 0 mm 7 m/s 748 mmHg 73%
    22:00 +3°C° 0 mm 7 m/s 748 mmHg 72%
    23:00 +3°C° 0 mm 7 m/s 748 mmHg 73%

    Mâine, 20 Februarie, Miercuri

    Timp Temperatura Precipitaţii Vânt Presiune Umiditate
    00:00 +2°C° 0 mm 7 m/s 748 mmHg 73%
    01:00 +2°C° 0 mm 7 m/s 749 mmHg 73%
    02:00 +2°C° 0 mm 7 m/s 749 mmHg 74%
    03:00 +2°C° 0 mm 7 m/s 749 mmHg 74%
    04:00 +2°C° 0 mm 7 m/s 749 mmHg 74%
    05:00 0°C° 0 mm 7 m/s 750 mmHg 76%
    06:00 0°C° 0 mm 7 m/s 751 mmHg 77%
    07:00 +1°C° 0 mm 6 m/s 751 mmHg 79%
    08:00 +1°C° 0 mm 6 m/s 752 mmHg 71%
    09:00 +1°C° 0 mm 6 m/s 753 mmHg 64%
    10:00 +2°C° 0 mm 6 m/s 754 mmHg 56%
    11:00 +2°C° 0 mm 5 m/s 755 mmHg 51%
    12:00 +2°C° 0 mm 5 m/s 756 mmHg 46%
    13:00 +4°C° 0 mm 4 m/s 756 mmHg 41%
    14:00 +4°C° 0 mm 3 m/s 757 mmHg 42%
    15:00 +3°C° 0 mm 3 m/s 757 mmHg 43%
    16:00 +4°C° 0 mm 2 m/s 758 mmHg 44%
    17:00 +3°C° 0 mm 2 m/s 759 mmHg 49%
    18:00 +2°C° 0 mm 2 m/s 759 mmHg 54%
    19:00 +1°C° 0 mm 2 m/s 760 mmHg 58%
    20:00 +1°C° 0 mm 2 m/s 760 mmHg 59%
    21:00 +2°C° 0 mm 1 m/s 760 mmHg 60%
    22:00 +1°C° 0 mm 1 m/s 760 mmHg 61%
    23:00 +1°C° 0 mm 1 m/s 760 mmHg 61%

    Poimâine, 21 Februarie, Joi

    Timp Temperatura Precipitaţii Vânt Presiune Umiditate
    00:00 +2°C° 0 mm 1 m/s 760 mmHg 61%
    01:00 +2°C° 0 mm 1 m/s 760 mmHg 60%
    02:00 +1°C° 0.1 mm 2 m/s 760 mmHg 61%
    03:00 +1°C° 0.1 mm 2 m/s 760 mmHg 62%
    04:00 0°C° 0.1 mm 3 m/s 759 mmHg 62%
    05:00 -1°C° 0.2 mm 4 m/s 759 mmHg 68%
    06:00 -1°C° 0.2 mm 4 m/s 759 mmHg 73%
    07:00 -1°C° 0.2 mm 5 m/s 759 mmHg 79%
    08:00 -1°C° 0.3 mm 5 m/s 759 mmHg 80%
    09:00 -1°C° 0.3 mm 5 m/s 759 mmHg 81%
    10:00 -2°C° 0.3 mm 6 m/s 759 mmHg 83%
    11:00 -1°C° 0.1 mm 5 m/s 759 mmHg 82%
    12:00 -1°C° 0.1 mm 5 m/s 759 mmHg 80%
    13:00 -1°C° 0.1 mm 5 m/s 760 mmHg 79%
    14:00 -1°C° 0.4 mm 5 m/s 760 mmHg 81%
    15:00 -1°C° 0.4 mm 5 m/s 760 mmHg 83%
    16:00 -1°C° 0.4 mm 5 m/s 761 mmHg 85%
    17:00 -1°C° 0.5 mm 5 m/s 762 mmHg 86%
    18:00 -2°C° 0.5 mm 5 m/s 762 mmHg 88%
    19:00 -3°C° 0.5 mm 6 m/s 763 mmHg 89%
    20:00 -2°C° 0.1 mm 5 m/s 764 mmHg 87%
    21:00 -2°C° 0.1 mm 5 m/s 765 mmHg 86%
    22:00 -2°C° 0.1 mm 5 m/s 767 mmHg 84%
    23:00 -4°C° 0 mm 5 m/s 768 mmHg 82%

    22 Februarie, Vineri

    Timp Temperatura Precipitaţii Vânt Presiune Umiditate
    00:00 -3°C° 0 mm 4 m/s 769 mmHg 80%
    01:00 -3°C° 0 mm 4 m/s 770 mmHg 79%
    02:00 -4°C° 0 mm 4 m/s 770 mmHg 79%
    03:00 -4°C° 0 mm 4 m/s 771 mmHg 78%
    04:00 -4°C° 0 mm 4 m/s 772 mmHg 78%
    05:00 -4°C° 0 mm 4 m/s 772 mmHg 78%
    06:00 -4°C° 0 mm 3 m/s 773 mmHg 77%
    07:00 -5°C° 0 mm 3 m/s 774 mmHg 76%
    08:00 -4°C° 0 mm 3 m/s 775 mmHg 72%
    09:00 -2°C° 0 mm 3 m/s 775 mmHg 67%
    10:00 -1°C° 0 mm 3 m/s 776 mmHg 62%
    11:00 -1°C° 0 mm 2 m/s 776 mmHg 60%
    12:00 +1°C° 0 mm 2 m/s 777 mmHg 59%
    13:00 +2°C° 0 mm 1 m/s 777 mmHg 57%
    14:00 +2°C° 0 mm 1 m/s 777 mmHg 59%
    15:00 +2°C° 0 mm 1 m/s 777 mmHg 61%
    16:00 +1°C° 0 mm 1 m/s 777 mmHg 64%
    17:00 +1°C° 0 mm 1 m/s 777 mmHg 68%
    18:00 0°C° 0 mm 1 m/s 777 mmHg 72%
    19:00 -3°C° 0 mm 2 m/s 777 mmHg 76%
    20:00 -3°C° 0 mm 2 m/s 777 mmHg 77%
    21:00 -3°C° 0 mm 2 m/s 777 mmHg 79%
    22:00 -3°C° 0 mm 2 m/s 777 mmHg 80%
    23:00 -4°C° 0 mm 3 m/s 777 mmHg 81%

    23 Februarie, Sâmbătă

    Timp Temperatura Precipitaţii Vânt Presiune Umiditate
    00:00 -4°C° 0 mm 3 m/s 777 mmHg 81%
    01:00 -4°C° 0 mm 3 m/s 777 mmHg 82%
    02:00 -4°C° 0 mm 4 m/s 776 mmHg 82%
    03:00 -3°C° 0 mm 4 m/s 776 mmHg 83%
    04:00 -3°C° 0 mm 4 m/s 775 mmHg 83%
    05:00 -3°C° 0 mm 4 m/s 775 mmHg 82%
    06:00 -2°C° 0 mm 5 m/s 774 mmHg 80%
    07:00 -1°C° 0 mm 5 m/s 774 mmHg 79%
    08:00 -1°C° 0 mm 5 m/s 774 mmHg 79%
    09:00 0°C° 0 mm 5 m/s 774 mmHg 79%
    10:00 +1°C° 0 mm 5 m/s 773 mmHg 80%
    11:00 +1°C° 0 mm 5 m/s 773 mmHg 80%
    12:00 +3°C° 0 mm 4 m/s 773 mmHg 80%
    13:00 +4°C° 0 mm 4 m/s 772 mmHg 80%
    14:00 +4°C° 0 mm 4 m/s 772 mmHg 82%
    15:00 +4°C° 0 mm 4 m/s 772 mmHg 84%
    16:00 +4°C° 0 mm 3 m/s 772 mmHg 86%
    17:00 +4°C° 0 mm 3 m/s 772 mmHg 89%
    18:00 +3°C° 0 mm 3 m/s 772 mmHg 92%
    19:00 +3°C° 0 mm 2 m/s 772 mmHg 95%
    20:00 +3°C° 0 mm 2 m/s 772 mmHg 95%
    21:00 +2°C° 0 mm 2 m/s 772 mmHg 95%
    22:00 +2°C° 0 mm 2 m/s 772 mmHg 96%
    23:00 +2°C° 0 mm 2 m/s 773 mmHg 96%

    24 Februarie, Duminică

    Timp Temperatura Precipitaţii Vânt Presiune Umiditate
    00:00 +2°C° 0 mm 2 m/s 773 mmHg 96%
    01:00 +2°C° 0 mm 1 m/s 773 mmHg 96%
    02:00 +2°C° 0 mm 1 m/s 773 mmHg 96%
    03:00 +2°C° 0 mm 1 m/s 773 mmHg 95%
    04:00 +2°C° 0 mm 1 m/s 773 mmHg 95%
    05:00 +2°C° 0 mm 1 m/s 772 mmHg 95%
    06:00 +1°C° 0 mm 2 m/s 772 mmHg 95%
    07:00 +1°C° 0 mm 2 m/s 772 mmHg 95%
    08:00 +2°C° 0 mm 3 m/s 772 mmHg 92%
    09:00 +3°C° 0 mm 3 m/s 772 mmHg 88%
    10:00 +4°C° 0 mm 4 m/s 772 mmHg 85%
    11:00 +5°C° 0 mm 4 m/s 772 mmHg 84%
    12:00 +6°C° 0 mm 4 m/s 772 mmHg 82%
    13:00 +7°C° 0 mm 4 m/s 772 mmHg 80%
    14:00 +7°C° 0 mm 4 m/s 772 mmHg 81%
    15:00 +7°C° 0 mm 4 m/s 772 mmHg 83%
    16:00 +7°C° 0 mm 4 m/s 771 mmHg 84%
    17:00 +6°C° 0 mm 4 m/s 771 mmHg 87%
    18:00 +5°C° 0 mm 4 m/s 771 mmHg 90%
    19:00 +5°C° 0 mm 4 m/s 771 mmHg 93%
    20:00 +4°C° 0 mm 4 m/s 771 mmHg 93%
    21:00 +4°C° 0 mm 3 m/s 771 mmHg 94%
    22:00 +3°C° 0 mm 3 m/s 772 mmHg 94%
    23:00 +3°C° 0 mm 3 m/s 772 mmHg 95%
    Arată mai mult